This is the latest recevied weather packets stored in our database for station/object DB0MOD. If no packets are shown the sender has not sent any weather packets the latest 10 day(s).
| Time | Temp. | Humidity | Pressure | Rain* | Wind** | Luminosity | Snow |
|---|---|---|---|---|---|---|---|
| 1778157237 | 14.44° C | 20% | 1013.1 hPa | 0 mm | - | - | - |
| 1778156937 | 13.89° C | 17% | 1012.8 hPa | 0 mm | - | - | - |
| 1778156337 | 13.33° C | 20% | 1012.8 hPa | 0 mm | - | - | - |
| 1778156037 | 13.33° C | 12% | 1012.9 hPa | 0 mm | - | - | - |
| 1778155737 | 13.33° C | 14% | 1012.9 hPa | 0 mm | - | - | - |
| 1778155437 | 13.33° C | 19% | 1012.9 hPa | 0 mm | - | - | - |
| 1778155137 | 13.33° C | 15% | 1013 hPa | 0 mm | - | - | - |
| 1778154837 | 13.33° C | 17% | 1012.8 hPa | 0 mm | - | - | - |
| 1778154537 | 13.33° C | 10% | 1013 hPa | 0 mm | - | - | - |
| 1778154237 | 12.78° C | 11% | 1013.1 hPa | 0 mm | - | - | - |
| 1778153937 | 13.33° C | 10% | 1013 hPa | 0 mm | - | - | - |
| 1778153637 | 12.78° C | 10% | 1013 hPa | 0 mm | - | - | - |
| 1778153337 | 12.78° C | 10% | 1013.1 hPa | 0 mm | - | - | - |
| 1778153037 | 12.78° C | 10% | 1013.1 hPa | 0 mm | - | - | - |
| 1778152737 | 12.22° C | 10% | 1013 hPa | 0 mm | - | - | - |
| 1778152437 | 12.22° C | 10% | 1013.1 hPa | 0 mm | - | - | - |
| 1778152137 | 12.22° C | 10% | 1013.1 hPa | 0 mm | - | - | - |
| 1778151837 | 12.22° C | 10% | 1013 hPa | 0 mm | - | - | - |
| 1778151538 | 12.22° C | 10% | 1013.1 hPa | 0 mm | - | - | - |
| 1778151237 | 11.67° C | 10% | 1013.1 hPa | 0 mm | - | - | - |
| 1778150937 | 11.67° C | 10% | 1013.2 hPa | 0 mm | - | - | - |
| 1778150637 | 11.11° C | 10% | 1013.2 hPa | 0 mm | - | - | - |
| 1778150337 | 10.56° C | 10% | 1013.3 hPa | 0 mm | - | - | - |
| 1778150037 | 10.56° C | 10% | 1013.2 hPa | 0 mm | - | - | - |
| 1778149737 | 10.56° C | 10% | 1013.3 hPa | 0 mm | - | - | - |
* Rain latest hour (hover to see other rain measurements)
** Current wind speed in m/s (hover to see current wind gust speed)